Terminal Aerodrome Forecast
Issued by NWS

Home | Current Version | Previous Version | Graphics & Text | Print | Product List | Glossary On
Versions: 1 2 3 4 5 6 7 8 9 10 11 12 13 14 15 16 17 18 19 20 21 22
698
FTUS43 KMPX 260533
TAFRNH
TAF
KRNH 260533Z 2606/2706 14005KT 1SM BR BKN002
     FM260800 VRB03KT 1/2SM FG VV001
     FM261300 22009KT P6SM FEW200
     FM270000 VRB03KT P6SM SCT050 OVC100=

USA.gov is the U.S. government's official web portal to all federal, state and local government web resources and services.